Time,TemperatureF,DewpointF,PressureIn,WindDirection,WindDirectionDegrees,WindSpeedMPH,WindSpeedGustMPH,Humidity,HourlyPrecipIn,Conditions,Clouds,dailyrainin,SolarRadiationWatts/m^2,SoftwareType,DateUTC
2013-06-26 00:00:00,78.4,73.2,29.95,WNW,296,1.0,11.0,84,0.00,,,0.00,0,Wunderground v.1.15,2013-06-26 04:00:00,
2013-06-26 00:05:00,78.3,73.1,29.95,West,277,2.0,11.0,84,0.00,,,0.00,0,Wunderground v.1.15,2013-06-26 04:05:00,
2013-06-26 00:10:00,78.2,73.0,29.95,WNW,288,2.0,2.0,84,0.00,,,0.00,0,Wunderground v.1.15,2013-06-26 04:10:00,
2013-06-26 00:15:00,78.2,73.0,29.95,WNW,296,2.0,11.0,84,0.00,,,0.00,0,Wunderground v.1.15,2013-06-26 04:15:00,
2013-06-26 00:20:00,78.1,72.9,29.95,WNW,296,1.0,11.0,84,0.00,,,0.00,0,Wunderground v.1.15,2013-06-26 04:20:00,
2013-06-26 00:25:00,78.0,72.8,29.95,WNW,282,1.0,11.0,84,0.00,,,0.00,0,Wunderground v.1.15,2013-06-26 04:25:00,
2013-06-26 00:30:00,78.0,72.8,29.94,WNW,283,1.0,11.0,84,0.00,,,0.00,0,Wunderground v.1.15,2013-06-26 04:30:00,
2013-06-26 00:35:00,78.0,72.8,29.94,WNW,288,2.0,11.0,84,0.00,,,0.00,0,Wunderground v.1.15,2013-06-26 04:35:00,
2013-06-26 00:40:00,77.9,72.7,29.94,WNW,288,2.0,2.0,84,0.00,,,0.00,0,Wunderground v.1.15,2013-06-26 04:40:00,
2013-06-26 00:45:00,77.8,72.6,29.94,WNW,287,1.0,11.0,84,0.00,,,0.00,0,Wunderground v.1.15,2013-06-26 04:45:00,
2013-06-26 00:55:00,77.8,72.2,29.95,WNW,288,0.0,11.0,83,0.00,,,0.00,0,Wunderground v.1.15,2013-06-26 04:55:00,
2013-06-26 01:00:00,77.7,72.1,29.95,WNW,288,0.0,11.0,83,0.00,,,0.00,0,Wunderground v.1.15,2013-06-26 05:00:00,
2013-06-26 01:05:00,77.7,72.1,29.95,WNW,288,0.0,11.0,83,0.00,,,0.00,0,Wunderground v.1.15,2013-06-26 05:05:00,
2013-06-26 01:10:00,77.6,72.0,29.95,WNW,288,0.0,11.0,83,0.00,,,0.00,0,Wunderground v.1.15,2013-06-26 05:10:00,
2013-06-26 01:15:00,77.6,72.0,29.95,WNW,288,0.0,11.0,83,0.00,,,0.00,0,Wunderground v.1.15,2013-06-26 05:15:00,
2013-06-26 01:25:00,77.3,72.1,29.95,WNW,288,0.0,11.0,84,0.00,,,0.00,0,Wunderground v.1.15,2013-06-26 05:25:00,
2013-06-26 01:30:00,77.1,71.9,29.95,WNW,288,0.0,11.0,84,0.00,,,0.00,0,Wunderground v.1.15,2013-06-26 05:30:00,
2013-06-26 01:35:00,76.8,71.9,29.95,WNW,288,0.0,11.0,85,0.00,,,0.00,0,Wunderground v.1.15,2013-06-26 05:35:00,
2013-06-26 01:40:00,76.6,71.7,29.95,WNW,288,0.0,11.0,85,0.00,,,0.00,0,Wunderground v.1.15,2013-06-26 05:40:00,
2013-06-26 01:45:00,76.4,71.9,29.95,WNW,287,0.0,11.0,86,0.00,,,0.00,0,Wunderground v.1.15,2013-06-26 05:45:00,
2013-06-26 01:50:00,76.2,71.7,29.95,WNW,288,1.0,1.0,86,0.00,,,0.00,0,Wunderground v.1.15,2013-06-26 05:50:00,
2013-06-26 02:00:00,76.0,71.5,29.94,WNW,288,0.0,11.0,86,0.00,,,0.00,0,Wunderground v.1.15,2013-06-26 06:00:00,
2013-06-26 02:05:00,76.0,71.8,29.94,WNW,288,0.0,11.0,87,0.00,,,0.00,0,Wunderground v.1.15,2013-06-26 06:05:00,
2013-06-26 02:10:00,76.0,71.8,29.94,WNW,288,0.0,11.0,87,0.00,,,0.00,0,Wunderground v.1.15,2013-06-26 06:10:00,
2013-06-26 02:15:00,76.0,71.8,29.93,WNW,288,0.0,11.0,87,0.00,,,0.00,0,Wunderground v.1.15,2013-06-26 06:15:00,
2013-06-26 02:20:00,75.8,71.7,29.93,WNW,288,0.0,11.0,87,0.00,,,0.00,0,Wunderground v.1.15,2013-06-26 06:20:00,
2013-06-26 02:30:00,75.6,71.8,29.93,WNW,288,1.0,11.0,88,0.00,,,0.00,0,Wunderground v.1.15,2013-06-26 06:30:00,
2013-06-26 02:35:00,75.5,71.7,29.93,WNW,283,1.0,11.0,88,0.00,,,0.00,0,Wunderground v.1.15,2013-06-26 06:35:00,
2013-06-26 02:40:00,75.5,71.7,29.93,West,280,1.0,1.0,88,0.00,,,0.00,0,Wunderground v.1.15,2013-06-26 06:40:00,
2013-06-26 02:45:00,75.4,71.6,29.92,West,280,1.0,11.0,88,0.00,,,0.00,0,Wunderground v.1.15,2013-06-26 06:45:00,
2013-06-26 02:50:00,75.4,71.6,29.92,West,270,1.0,11.0,88,0.00,,,0.00,0,Wunderground v.1.15,2013-06-26 06:50:00,
2013-06-26 02:55:00,75.3,71.5,29.92,NW,304,1.0,11.0,88,0.00,,,0.00,0,Wunderground v.1.15,2013-06-26 06:55:00,
2013-06-26 03:05:00,75.1,71.6,29.92,WNW,286,1.0,3.0,89,0.00,,,0.00,0,Wunderground v.1.15,2013-06-26 07:05:00,
2013-06-26 03:10:00,75.0,71.5,29.92,WNW,286,1.0,1.0,89,0.00,,,0.00,0,Wunderground v.1.15,2013-06-26 07:10:00,
2013-06-26 03:15:00,74.9,71.4,29.92,WNW,286,1.0,11.0,89,0.00,,,0.00,0,Wunderground v.1.15,2013-06-26 07:15:00,
2013-06-26 03:20:00,74.8,71.3,29.92,WNW,286,0.0,11.0,89,0.00,,,0.00,0,Wunderground v.1.15,2013-06-26 07:20:00,
2013-06-26 03:25:00,74.7,71.2,29.92,WNW,286,0.0,11.0,89,0.00,,,0.00,0,Wunderground v.1.15,2013-06-26 07:25:00,
2013-06-26 03:35:00,74.6,71.5,29.92,WNW,286,0.0,11.0,90,0.00,,,0.00,0,Wunderground v.1.15,2013-06-26 07:35:00,
2013-06-26 03:40:00,74.4,71.3,29.92,WNW,286,1.0,1.0,90,0.00,,,0.00,0,Wunderground v.1.15,2013-06-26 07:40:00,
2013-06-26 03:45:00,74.2,71.1,29.92,WNW,286,0.0,11.0,90,0.00,,,0.00,0,Wunderground v.1.15,2013-06-26 07:45:00,
2013-06-26 03:50:00,74.1,71.3,29.92,WNW,286,0.0,11.0,91,0.00,,,0.00,0,Wunderground v.1.15,2013-06-26 07:50:00,
2013-06-26 03:55:00,73.9,71.1,29.92,WNW,286,0.0,11.0,91,0.00,,,0.00,0,Wunderground v.1.15,2013-06-26 07:55:00,
2013-06-26 04:00:00,73.9,71.1,29.92,WNW,286,0.0,11.0,91,0.00,,,0.00,0,Wunderground v.1.15,2013-06-26 08:00:00,
2013-06-26 04:10:00,73.7,70.9,29.92,WNW,286,0.0,11.0,91,0.00,,,0.00,0,Wunderground v.1.15,2013-06-26 08:10:00,
2013-06-26 04:15:00,73.7,70.9,29.92,WNW,286,0.0,11.0,91,0.00,,,0.00,0,Wunderground v.1.15,2013-06-26 08:15:00,
2013-06-26 04:20:00,73.7,70.9,29.92,WNW,286,0.0,11.0,91,0.00,,,0.00,0,Wunderground v.1.15,2013-06-26 08:20:00,
2013-06-26 04:25:00,73.6,70.8,29.92,WNW,286,0.0,11.0,91,0.00,,,0.00,0,Wunderground v.1.15,2013-06-26 08:25:00,
2013-06-26 04:30:00,73.5,71.0,29.92,WNW,286,0.0,11.0,92,0.00,,,0.00,0,Wunderground v.1.15,2013-06-26 08:30:00,
2013-06-26 04:40:00,73.2,70.7,29.91,WNW,286,1.0,1.0,92,0.00,,,0.00,0,Wunderground v.1.15,2013-06-26 08:40:00,
2013-06-26 04:45:00,73.1,70.6,29.92,WNW,286,0.0,11.0,92,0.00,,,0.00,0,Wunderground v.1.15,2013-06-26 08:45:00,
2013-06-26 04:50:00,73.1,71.0,29.92,West,259,1.0,11.0,93,0.00,,,0.00,0,Wunderground v.1.15,2013-06-26 08:50:00,
2013-06-26 04:55:00,73.1,70.6,29.92,West,259,1.0,11.0,92,0.00,,,0.00,0,Wunderground v.1.15,2013-06-26 08:55:00,
2013-06-26 05:00:00,73.1,70.6,29.92,WNW,287,2.0,2.0,92,0.00,,,0.00,0,Wunderground v.1.15,2013-06-26 09:00:00,
2013-06-26 05:05:00,73.0,70.5,29.92,WSW,244,2.0,11.0,92,0.00,,,0.00,0,Wunderground v.1.15,2013-06-26 09:05:00,
2013-06-26 05:15:00,72.9,70.8,29.92,West,273,1.0,11.0,93,0.00,,,0.00,0,Wunderground v.1.15,2013-06-26 09:15:00,
2013-06-26 05:20:00,72.9,70.8,29.92,West,273,1.0,11.0,93,0.00,,,0.00,0,Wunderground v.1.15,2013-06-26 09:20:00,
2013-06-26 05:25:00,72.9,70.8,29.92,West,273,1.0,11.0,93,0.00,,,0.00,0,Wunderground v.1.15,2013-06-26 09:25:00,
2013-06-26 05:30:00,72.8,70.7,29.92,West,273,1.0,11.0,93,0.00,,,0.00,0,Wunderground v.1.15,2013-06-26 09:30:00,
2013-06-26 05:35:00,72.8,70.7,29.93,West,273,1.0,11.0,93,0.00,,,0.00,0,Wunderground v.1.15,2013-06-26 09:35:00,
2013-06-26 05:45:00,72.6,70.5,29.93,West,273,0.0,11.0,93,0.00,,,0.00,0,Wunderground v.1.15,2013-06-26 09:45:00,
2013-06-26 05:50:00,72.5,70.4,29.93,WSW,250,1.0,11.0,93,0.00,,,0.00,0,Wunderground v.1.15,2013-06-26 09:50:00,
2013-06-26 05:55:00,72.4,70.3,29.93,West,268,2.0,11.0,93,0.00,,,0.00,0,Wunderground v.1.15,2013-06-26 09:55:00,
2013-06-26 06:00:00,72.4,70.3,29.93,WSW,252,2.0,2.0,93,0.00,,,0.00,0,Wunderground v.1.15,2013-06-26 10:00:00,
2013-06-26 06:05:00,72.3,70.2,29.93,WSW,252,1.0,11.0,93,0.00,,,0.00,5,Wunderground v.1.15,2013-06-26 10:05:00,
2013-06-26 06:10:00,72.3,70.2,29.93,WSW,252,1.0,11.0,93,0.00,,,0.00,9,Wunderground v.1.15,2013-06-26 10:10:00,
2013-06-26 06:20:00,72.2,70.1,29.93,WSW,252,1.0,1.0,93,0.00,,,0.00,18,Wunderground v.1.15,2013-06-26 10:20:00,
2013-06-26 06:25:00,72.2,70.1,29.93,WSW,252,1.0,11.0,93,0.00,,,0.00,26,Wunderground v.1.15,2013-06-26 10:25:00,
2013-06-26 06:30:00,72.4,70.3,29.93,WSW,252,0.0,11.0,93,0.00,,,0.00,32,Wunderground v.1.15,2013-06-26 10:30:00,
2013-06-26 06:35:00,72.4,70.3,29.93,WSW,252,1.0,11.0,93,0.00,,,0.00,37,Wunderground v.1.15,2013-06-26 10:35:00,
2013-06-26 06:40:00,72.5,70.4,29.93,WSW,252,1.0,11.0,93,0.00,,,0.00,42,Wunderground v.1.15,2013-06-26 10:40:00,
2013-06-26 06:50:00,72.5,70.4,29.93,WNW,289,2.0,2.0,93,0.00,,,0.00,67,Wunderground v.1.15,2013-06-26 10:50:00,
2013-06-26 06:55:00,72.6,70.5,29.93,WNW,285,2.0,11.0,93,0.00,,,0.00,91,Wunderground v.1.15,2013-06-26 10:55:00,
2013-06-26 07:00:00,72.8,70.7,29.93,WNW,284,1.0,11.0,93,0.00,,,0.00,105,Wunderground v.1.15,2013-06-26 11:00:00,
2013-06-26 07:05:00,73.1,70.6,29.93,WNW,297,1.0,11.0,92,0.00,,,0.00,116,Wunderground v.1.15,2013-06-26 11:05:00,
2013-06-26 07:10:00,73.4,70.6,29.94,West,261,2.0,11.0,91,0.00,,,0.00,128,Wunderground v.1.15,2013-06-26 11:10:00,
2013-06-26 07:15:00,73.7,70.9,29.94,WNW,301,2.0,11.0,91,0.00,,,0.00,153,Wunderground v.1.15,2013-06-26 11:15:00,
2013-06-26 07:25:00,74.2,71.1,29.95,WNW,290,1.0,11.0,90,0.00,,,0.00,192,Wunderground v.1.15,2013-06-26 11:25:00,
2013-06-26 07:30:00,74.6,71.1,29.95,WSW,248,1.0,11.0,89,0.00,,,0.00,199,Wunderground v.1.15,2013-06-26 11:30:00,
2013-06-26 07:35:00,74.8,71.0,29.95,WSW,244,2.0,11.0,88,0.00,,,0.00,207,Wunderground v.1.15,2013-06-26 11:35:00,
2013-06-26 07:40:00,74.9,71.1,29.95,WSW,247,2.0,11.0,88,0.00,,,0.00,232,Wunderground v.1.15,2013-06-26 11:40:00,
2013-06-26 07:45:00,74.9,71.1,29.95,West,278,3.0,11.0,88,0.00,,,0.00,248,Wunderground v.1.15,2013-06-26 11:45:00,
2013-06-26 07:55:00,75.5,71.7,29.94,WNW,291,2.0,11.0,88,0.00,,,0.00,287,Wunderground v.1.15,2013-06-26 11:55:00,
2013-06-26 08:00:00,75.9,71.8,29.94,WNW,284,1.0,11.0,87,0.00,,,0.00,306,Wunderground v.1.15,2013-06-26 12:00:00,
2013-06-26 08:05:00,76.3,71.8,29.95,WNW,286,1.0,11.0,86,0.00,,,0.00,322,Wunderground v.1.15,2013-06-26 12:05:00,
2013-06-26 08:10:00,76.7,71.8,29.94,WNW,284,1.0,1.0,85,0.00,,,0.00,341,Wunderground v.1.15,2013-06-26 12:10:00,
2013-06-26 08:15:00,77.3,72.1,29.94,WNW,284,1.0,11.0,84,0.00,,,0.00,359,Wunderground v.1.15,2013-06-26 12:15:00,
2013-06-26 08:20:00,77.8,72.2,29.95,WNW,282,1.0,1.0,83,0.00,,,0.00,374,Wunderground v.1.15,2013-06-26 12:20:00,
2013-06-26 08:30:00,78.9,72.6,29.94,West,273,1.0,11.0,81,0.00,,,0.00,406,Wunderground v.1.15,2013-06-26 12:30:00,
2013-06-26 08:35:00,79.4,72.7,29.94,West,273,1.0,11.0,80,0.00,,,0.00,420,Wunderground v.1.15,2013-06-26 12:35:00,
2013-06-26 08:40:00,79.7,72.6,29.94,West,270,1.0,11.0,79,0.00,,,0.00,436,Wunderground v.1.15,2013-06-26 12:40:00,
2013-06-26 08:45:00,80.1,73.0,29.94,South,183,1.0,11.0,79,0.00,,,0.00,448,Wunderground v.1.15,2013-06-26 12:45:00,
2013-06-26 08:50:00,80.8,72.9,29.94,SSE,156,2.0,11.0,77,0.00,,,0.00,468,Wunderground v.1.15,2013-06-26 12:50:00,
2013-06-26 09:00:00,81.3,73.0,29.94,SSE,155,2.0,11.0,76,0.00,,,0.00,501,Wunderground v.1.15,2013-06-26 13:00:00,
2013-06-26 09:05:00,81.5,73.2,29.93,SSE,147,2.0,11.0,76,0.00,,,0.00,520,Wunderground v.1.15,2013-06-26 13:05:00,
2013-06-26 09:10:00,81.8,73.1,29.94,South,174,1.0,1.0,75,0.00,,,0.00,534,Wunderground v.1.15,2013-06-26 13:10:00,
2013-06-26 09:15:00,82.1,73.0,29.94,South,174,1.0,11.0,74,0.00,,,0.00,548,Wunderground v.1.15,2013-06-26 13:15:00,
2013-06-26 09:20:00,82.7,73.2,29.94,SW,236,1.0,11.0,73,0.00,,,0.00,561,Wunderground v.1.15,2013-06-26 13:20:00,
2013-06-26 09:25:00,82.5,73.0,29.93,WSW,257,2.0,11.0,73,0.00,,,0.00,564,Wunderground v.1.15,2013-06-26 13:25:00,
2013-06-26 09:35:00,83.1,72.7,29.93,WSW,250,2.0,11.0,71,0.00,,,0.00,605,Wunderground v.1.15,2013-06-26 13:35:00,
2013-06-26 09:40:00,83.7,73.7,29.94,West,277,1.0,11.0,72,0.00,,,0.00,621,Wunderground v.1.15,2013-06-26 13:40:00,
2013-06-26 09:45:00,83.7,72.9,29.93,WSW,237,2.0,11.0,70,0.00,,,0.00,628,Wunderground v.1.15,2013-06-26 13:45:00,
2013-06-26 09:50:00,83.8,73.8,29.93,NNW,327,2.0,2.0,72,0.00,,,0.00,647,Wunderground v.1.15,2013-06-26 13:50:00,
2013-06-26 09:55:00,84.1,72.8,29.93,WNW,298,2.0,11.0,69,0.00,,,0.00,661,Wunderground v.1.15,2013-06-26 13:55:00,
2013-06-26 10:05:00,84.3,73.0,29.93,NNW,336,3.0,11.0,69,0.00,,,0.00,689,Wunderground v.1.15,2013-06-26 14:05:00,
2013-06-26 10:10:00,84.7,72.5,29.93,NW,317,3.0,3.0,67,0.00,,,0.00,703,Wunderground v.1.15,2013-06-26 14:10:00,
2013-06-26 10:15:00,84.9,72.7,29.93,West,263,3.0,11.0,67,0.00,,,0.00,719,Wunderground v.1.15,2013-06-26 14:15:00,
2013-06-26 10:20:00,85.1,73.3,29.93,North,5,2.0,2.0,68,0.00,,,0.00,724,Wunderground v.1.15,2013-06-26 14:20:00,
2013-06-26 10:25:00,85.6,72.9,29.92,SSE,153,2.0,11.0,66,0.00,,,0.00,722,Wunderground v.1.15,2013-06-26 14:25:00,
2013-06-26 10:30:00,85.9,72.3,29.92,North,360,1.0,11.0,64,0.00,,,0.00,756,Wunderground v.1.15,2013-06-26 14:30:00,
2013-06-26 10:40:00,86.7,72.6,29.92,SSE,155,1.0,11.0,63,0.00,,,0.00,770,Wunderground v.1.15,2013-06-26 14:40:00,
2013-06-26 10:45:00,87.3,72.7,29.92,SSW,205,1.0,11.0,62,0.00,,,0.00,761,Wunderground v.1.15,2013-06-26 14:45:00,
2013-06-26 10:50:00,87.1,72.5,29.92,South,190,1.0,1.0,62,0.00,,,0.00,793,Wunderground v.1.15,2013-06-26 14:50:00,
2013-06-26 10:55:00,87.1,72.0,29.92,NNW,339,2.0,2.0,61,0.00,,,0.00,814,Wunderground v.1.15,2013-06-26 14:55:00,
2013-06-26 11:00:00,86.6,71.5,29.92,SW,235,2.0,11.0,61,0.00,,,0.00,824,Wunderground v.1.15,2013-06-26 15:00:00,
2013-06-26 11:10:00,86.9,71.8,29.93,WSW,245,2.0,11.0,61,0.00,,,0.00,861,Wunderground v.1.15,2013-06-26 15:10:00,
2013-06-26 11:15:00,87.0,71.4,29.93,West,279,2.0,11.0,60,0.00,,,0.00,830,Wunderground v.1.15,2013-06-26 15:15:00,
2013-06-26 11:20:00,87.1,72.0,29.93,WSW,252,3.0,3.0,61,0.00,,,0.00,851,Wunderground v.1.15,2013-06-26 15:20:00,
2013-06-26 11:25:00,87.5,71.4,29.93,WSW,251,2.0,4.0,59,0.00,,,0.00,863,Wunderground v.1.15,2013-06-26 15:25:00,
2013-06-26 11:30:00,87.5,72.4,29.92,WNW,298,2.0,2.0,61,0.00,,,0.00,875,Wunderground v.1.15,2013-06-26 15:30:00,
2013-06-26 11:35:00,88.1,72.5,29.92,NW,309,2.0,11.0,60,0.00,,,0.00,882,Wunderground v.1.15,2013-06-26 15:35:00,
2013-06-26 11:45:00,88.2,71.0,29.92,NNW,330,3.0,11.0,57,0.00,,,0.00,898,Wunderground v.1.15,2013-06-26 15:45:00,
2013-06-26 11:50:00,88.2,72.1,29.92,SE,140,3.0,3.0,59,0.00,,,0.00,902,Wunderground v.1.15,2013-06-26 15:50:00,
2013-06-26 11:55:00,88.6,72.4,29.92,WNW,288,2.0,11.0,59,0.00,,,0.00,895,Wunderground v.1.15,2013-06-26 15:55:00,
2013-06-26 12:00:00,88.8,72.1,29.92,NW,311,2.0,11.0,58,0.00,,,0.00,919,Wunderground v.1.15,2013-06-26 16:00:00,
2013-06-26 12:05:00,88.3,72.2,29.92,NW,313,4.0,11.0,59,0.00,,,0.00,933,Wunderground v.1.15,2013-06-26 16:05:00,
2013-06-26 12:15:00,88.8,71.6,29.92,NNE,13,3.0,11.0,57,0.00,,,0.00,942,Wunderground v.1.15,2013-06-26 16:15:00,
2013-06-26 12:20:00,89.5,72.8,29.92,WNW,288,2.0,11.0,58,0.00,,,0.00,962,Wunderground v.1.15,2013-06-26 16:20:00,
2013-06-26 12:25:00,89.3,72.1,29.92,NNE,13,2.0,11.0,57,0.00,,,0.00,1004,Wunderground v.1.15,2013-06-26 16:25:00,
2013-06-26 12:30:00,89.5,72.3,29.92,NW,323,3.0,11.0,57,0.00,,,0.00,1041,Wunderground v.1.15,2013-06-26 16:30:00,
2013-06-26 12:35:00,89.1,71.9,29.92,West,279,3.0,11.0,57,0.00,,,0.00,336,Wunderground v.1.15,2013-06-26 16:35:00,
2013-06-26 12:40:00,88.9,72.2,29.92,WNW,296,3.0,11.0,58,0.00,,,0.00,1030,Wunderground v.1.15,2013-06-26 16:40:00,
2013-06-26 12:50:00,89.2,73.0,29.92,NNW,339,3.0,3.0,59,0.00,,,0.00,972,Wunderground v.1.15,2013-06-26 16:50:00,
2013-06-26 12:55:00,89.7,71.9,29.91,NW,308,2.0,11.0,56,0.00,,,0.00,1023,Wunderground v.1.15,2013-06-26 16:55:00,
2013-06-26 13:00:00,89.6,72.9,29.91,WNW,293,2.0,11.0,58,0.00,,,0.00,355,Wunderground v.1.15,2013-06-26 17:00:00,
2013-06-26 13:05:00,89.2,72.5,29.91,West,279,4.0,11.0,58,0.00,,,0.00,1056,Wunderground v.1.15,2013-06-26 17:05:00,
2013-06-26 13:10:00,89.3,71.5,29.91,NW,309,6.0,6.0,56,0.00,,,0.00,979,Wunderground v.1.15,2013-06-26 17:10:00,
2013-06-26 13:20:00,89.4,72.2,29.91,NNW,347,5.0,5.0,57,0.00,,,0.00,1007,Wunderground v.1.15,2013-06-26 17:20:00,
2013-06-26 13:25:00,89.9,71.6,29.91,WSW,258,4.0,11.0,55,0.00,,,0.00,953,Wunderground v.1.15,2013-06-26 17:25:00,
2013-06-26 13:30:00,89.9,71.6,29.90,NNW,329,5.0,5.0,55,0.00,,,0.00,977,Wunderground v.1.15,2013-06-26 17:30:00,
2013-06-26 13:35:00,89.9,72.1,29.90,NW,305,5.0,11.0,56,0.00,,,0.00,1023,Wunderground v.1.15,2013-06-26 17:35:00,
2013-06-26 13:40:00,90.5,72.1,29.90,North,355,3.0,11.0,55,0.00,,,0.00,1030,Wunderground v.1.15,2013-06-26 17:40:00,
2013-06-26 13:45:00,90.8,71.9,29.90,WNW,288,3.0,11.0,54,0.00,,,0.00,984,Wunderground v.1.15,2013-06-26 17:45:00,
2013-06-26 13:55:00,90.8,71.9,29.89,NW,304,5.0,11.0,54,0.00,,,0.00,1028,Wunderground v.1.15,2013-06-26 17:55:00,
2013-06-26 14:00:00,90.9,72.0,29.89,NW,310,4.0,4.0,54,0.00,,,0.00,350,Wunderground v.1.15,2013-06-26 18:00:00,
2013-06-26 14:05:00,91.1,72.7,29.89,West,271,4.0,11.0,55,0.00,,,0.00,417,Wunderground v.1.15,2013-06-26 18:05:00,
2013-06-26 14:10:00,91.2,72.8,29.89,West,268,3.0,11.0,55,0.00,,,0.00,383,Wunderground v.1.15,2013-06-26 18:10:00,
2013-06-26 14:20:00,91.1,72.7,29.89,WSW,246,2.0,11.0,55,0.00,,,0.00,954,Wunderground v.1.15,2013-06-26 18:20:00,
2013-06-26 14:25:00,91.4,73.0,29.89,SSE,148,2.0,11.0,55,0.00,,,0.00,320,Wunderground v.1.15,2013-06-26 18:25:00,
2013-06-26 14:30:00,89.4,69.5,29.90,East,79,4.0,11.0,52,0.00,,,0.00,239,Wunderground v.1.15,2013-06-26 18:30:00,
2013-06-26 14:35:00,87.2,69.1,29.89,ENE,66,4.0,11.0,55,0.00,,,0.00,269,Wunderground v.1.15,2013-06-26 18:35:00,
2013-06-26 14:40:00,85.6,69.1,29.89,SE,126,4.0,11.0,58,0.00,,,0.00,230,Wunderground v.1.15,2013-06-26 18:40:00,
2013-06-26 14:45:00,84.8,68.9,29.89,ESE,104,4.0,11.0,59,0.00,,,0.00,153,Wunderground v.1.15,2013-06-26 18:45:00,
2013-06-26 14:50:00,83.9,68.0,29.89,SE,126,3.0,3.0,59,0.00,,,0.00,334,Wunderground v.1.15,2013-06-26 18:50:00,
2013-06-26 15:00:00,82.5,68.2,29.89,SE,138,8.0,12.0,62,0.00,,,0.00,663,Wunderground v.1.15,2013-06-26 19:00:00,
2013-06-26 15:05:00,82.5,68.2,29.88,SE,132,9.0,12.0,62,0.00,,,0.00,679,Wunderground v.1.15,2013-06-26 19:05:00,
2013-06-26 15:10:00,82.4,68.1,29.88,SE,125,7.0,15.0,62,0.00,,,0.00,425,Wunderground v.1.15,2013-06-26 19:10:00,
2013-06-26 15:15:00,81.5,68.1,29.88,ESE,106,8.0,15.0,64,0.00,,,0.00,573,Wunderground v.1.15,2013-06-26 19:15:00,
2013-06-26 15:20:00,81.8,68.4,29.88,SSE,162,8.0,8.0,64,0.00,,,0.00,285,Wunderground v.1.15,2013-06-26 19:20:00,
2013-06-26 15:30:00,79.0,68.0,29.94,NW,317,6.0,12.0,69,1.50,,,0.07,16,Wunderground v.1.15,2013-06-26 19:30:00,